Погода в Братолюбовке

Украина / Кировоградская область     48°18′15″N   31°11′30″E
темп.,
°C
ветер,
м/с
пор.,
м/с
влажн.,
%
обл.,
%
осадки,
мм/ч
давл.,
гПа
погр.,
м
28 ноября, вс
вс2823:00+6ююз34885 0.0 100455
02:00+6ююз33884 0.0 100532
05:00+5ю33890 0.0 100534
08:00+5ююв35875 0.0 100588
11:00+10ююв5106784 0.0 1005345
14:00+12ююв5107377 0.0 1003496
17:00+11юв6109499 0.0 1002344
20:00+9юв379556 0.0 1002173
29 ноября, пн
пн2923:00+9юв3798100 0.0 1000240
02:00+9ююв379697 0.0 999190
05:00+10ююв61296100 0.0 997402
08:00+10ю81389100 0.0 996648
11:00+11ю71289100 0.1 993860
14:00+11ю51097100 2.0 989447
17:00+11ю4998100 3.1 986468
20:00+9зюз121592100 5.1 987787
30 ноября, вт
вт3023:00+4з11188197 1.9 9941030
02:00+2з815765 1.9 999766
05:00+1з714755 0.0 1001662
08:00+1з6157428 0.0 1002581
11:00+3з812589 0.0 1003839
14:00+3з7105889 0.0 10021038
17:00+2зсз61267100 0.0 1002793
20:00+1зсз6127422 0.0 1003608
1 декабря, ср
ср123:00−1зсз512755 0.0 1004501
02:00−2зюз4978100 0.0 1005303
05:000юз61367100 0.0 1005545
08:000юз61267100 0.0 1005556
11:00+3зюз81253100 0.0 1005979
14:00+4з7116194 0.0 10051155
17:00+3з51073100 0.0 1006628
20:00+1зюз358026 0.0 100781
2 декабря, чт
чт223:00+2ююз4117490 0.0 1007292
02:00+3ююз51266100 0.0 1007298
05:00+2ююз512815 0.0 1007248
08:00+1ююз510835 0.0 1007194
11:00+6ююз586439 0.0 1007319
14:00+8юз585512 0.0 1007562
17:00+5ююз48676 0.0 1008120
20:00+4ююз497363 0.0 1008157